• în Republica Moldova
  • Lista ţărilor
  • Pe 7 zile
  • Temperatura apei
  • Hartă satelitară
  • Meteo pe hartă
  • Widget-uri
  • user-avatar
    Intrare

    Meteo pe oră la Brisbane

    Astăzi, 17 Iunie, Luni

    Timp Temperatura Precipitaţii Vânt Presiune Umiditate
    00:00 +19°C° 0.1 mm 1 m/s 760 mmHg 87%
    01:00 +19°C° 0.1 mm 1 m/s 760 mmHg 86%
    02:00 +18°C° 0.2 mm 2 m/s 760 mmHg 84%
    03:00 +17°C° 0.2 mm 3 m/s 760 mmHg 82%
    04:00 +17°C° 0 mm 2 m/s 760 mmHg 84%
    05:00 +16°C° 0 mm 3 m/s 760 mmHg 80%
    06:00 +14°C° 0 mm 3 m/s 760 mmHg 76%
    07:00 +13°C° 0 mm 4 m/s 761 mmHg 72%
    08:00 +14°C° 0 mm 4 m/s 761 mmHg 63%
    09:00 +17°C° 0 mm 4 m/s 761 mmHg 55%
    10:00 +19°C° 0 mm 3 m/s 761 mmHg 48%
    11:00 +20°C° 0 mm 3 m/s 761 mmHg 43%
    12:00 +21°C° 0 mm 3 m/s 760 mmHg 39%
    13:00 +22°C° 0 mm 4 m/s 760 mmHg 34%
    14:00 +21°C° 0 mm 3 m/s 759 mmHg 36%
    15:00 +21°C° 0 mm 2 m/s 759 mmHg 37%
    16:00 +21°C° 0 mm 2 m/s 759 mmHg 39%
    17:00 +19°C° 0 mm 2 m/s 760 mmHg 43%
    18:00 +17°C° 0 mm 2 m/s 760 mmHg 47%
    19:00 +16°C° 0 mm 2 m/s 761 mmHg 51%
    20:00 +15°C° 0 mm 2 m/s 761 mmHg 53%
    21:00 +14°C° 0 mm 2 m/s 761 mmHg 56%
    22:00 +14°C° 0 mm 2 m/s 762 mmHg 58%
    23:00 +13°C° 0 mm 2 m/s 761 mmHg 60%

    Mâine, 18 Iunie, Marţi

    Timp Temperatura Precipitaţii Vânt Presiune Umiditate
    00:00 +13°C° 0 mm 2 m/s 761 mmHg 62%
    01:00 +12°C° 0 mm 2 m/s 761 mmHg 64%
    02:00 +12°C° 0 mm 2 m/s 761 mmHg 65%
    03:00 +12°C° 0 mm 2 m/s 761 mmHg 66%
    04:00 +10°C° 0 mm 2 m/s 761 mmHg 67%
    05:00 +10°C° 0 mm 2 m/s 761 mmHg 68%
    06:00 +10°C° 0 mm 2 m/s 761 mmHg 69%
    07:00 +10°C° 0 mm 2 m/s 762 mmHg 70%
    08:00 +13°C° 0 mm 2 m/s 762 mmHg 62%
    09:00 +16°C° 0 mm 2 m/s 762 mmHg 55%
    10:00 +18°C° 0 mm 2 m/s 762 mmHg 48%
    11:00 +19°C° 0 mm 2 m/s 761 mmHg 44%
    12:00 +21°C° 0 mm 2 m/s 760 mmHg 40%
    13:00 +23°C° 0 mm 2 m/s 760 mmHg 36%
    14:00 +23°C° 0 mm 1 m/s 760 mmHg 38%
    15:00 +22°C° 0 mm 1 m/s 760 mmHg 41%
    16:00 +22°C° 0 mm 1 m/s 760 mmHg 43%
    17:00 +20°C° 0 mm 1 m/s 760 mmHg 46%
    18:00 +19°C° 0 mm 1 m/s 760 mmHg 49%
    19:00 +16°C° 0 mm 1 m/s 761 mmHg 52%
    20:00 +16°C° 0 mm 1 m/s 761 mmHg 54%
    21:00 +15°C° 0 mm 1 m/s 761 mmHg 57%
    22:00 +14°C° 0 mm 1 m/s 761 mmHg 59%
    23:00 +14°C° 0 mm 1 m/s 761 mmHg 61%

    Poimâine, 19 Iunie, Miercuri

    Timp Temperatura Precipitaţii Vânt Presiune Umiditate
    00:00 +14°C° 0 mm 1 m/s 761 mmHg 63%
    01:00 +13°C° 0 mm 2 m/s 761 mmHg 65%
    02:00 +13°C° 0 mm 2 m/s 761 mmHg 67%
    03:00 +13°C° 0 mm 2 m/s 760 mmHg 70%
    04:00 +12°C° 0 mm 2 m/s 760 mmHg 72%
    05:00 +12°C° 0 mm 2 m/s 761 mmHg 73%
    06:00 +12°C° 0 mm 2 m/s 761 mmHg 74%
    07:00 +12°C° 0 mm 2 m/s 762 mmHg 75%
    08:00 +14°C° 0 mm 2 m/s 762 mmHg 68%
    09:00 +16°C° 0 mm 2 m/s 762 mmHg 61%
    10:00 +19°C° 0 mm 2 m/s 762 mmHg 54%
    11:00 +20°C° 0 mm 2 m/s 761 mmHg 52%
    12:00 +23°C° 0 mm 1 m/s 761 mmHg 50%
    13:00 +24°C° 0 mm 1 m/s 760 mmHg 48%
    14:00 +23°C° 0 mm 1 m/s 760 mmHg 52%
    15:00 +23°C° 0 mm 2 m/s 760 mmHg 56%
    16:00 +21°C° 0 mm 2 m/s 760 mmHg 61%
    17:00 +20°C° 0.1 mm 2 m/s 761 mmHg 67%
    18:00 +19°C° 0.1 mm 2 m/s 761 mmHg 73%
    19:00 +17°C° 0.1 mm 3 m/s 762 mmHg 79%
    20:00 +17°C° 0 mm 3 m/s 762 mmHg 80%
    21:00 +16°C° 0 mm 3 m/s 762 mmHg 81%
    22:00 +16°C° 0 mm 3 m/s 763 mmHg 82%
    23:00 +14°C° 0 mm 3 m/s 762 mmHg 83%

    20 Iunie, Joi

    Timp Temperatura Precipitaţii Vânt Presiune Umiditate
    00:00 +15°C° 0 mm 2 m/s 762 mmHg 84%
    01:00 +15°C° 0 mm 2 m/s 762 mmHg 85%
    02:00 +14°C° 0 mm 2 m/s 762 mmHg 86%
    03:00 +14°C° 0 mm 2 m/s 762 mmHg 87%
    04:00 +14°C° 0 mm 2 m/s 762 mmHg 87%
    05:00 +14°C° 0 mm 2 m/s 763 mmHg 86%
    06:00 +13°C° 0 mm 2 m/s 763 mmHg 85%
    07:00 +13°C° 0 mm 2 m/s 763 mmHg 83%
    08:00 +15°C° 0 mm 2 m/s 763 mmHg 77%
    09:00 +16°C° 0 mm 2 m/s 763 mmHg 71%
    10:00 +17°C° 0 mm 2 m/s 763 mmHg 65%
    11:00 +18°C° 0 mm 2 m/s 763 mmHg 62%
    12:00 +19°C° 0 mm 2 m/s 762 mmHg 60%
    13:00 +20°C° 0 mm 2 m/s 762 mmHg 57%
    14:00 +20°C° 0 mm 2 m/s 762 mmHg 59%
    15:00 +19°C° 0 mm 2 m/s 761 mmHg 60%
    16:00 +19°C° 0 mm 2 m/s 761 mmHg 62%
    17:00 +19°C° 0 mm 2 m/s 762 mmHg 64%
    18:00 +19°C° 0 mm 1 m/s 762 mmHg 66%
    19:00 +18°C° 0 mm 1 m/s 763 mmHg 68%
    20:00 +18°C° 0 mm 1 m/s 763 mmHg 71%
    21:00 +16°C° 0 mm 1 m/s 763 mmHg 73%
    22:00 +15°C° 0 mm 1 m/s 762 mmHg 75%
    23:00 +15°C° 0 mm 2 m/s 762 mmHg 76%

    21 Iunie, Vineri

    Timp Temperatura Precipitaţii Vânt Presiune Umiditate
    00:00 +14°C° 0 mm 2 m/s 762 mmHg 77%
    01:00 +14°C° 0 mm 2 m/s 762 mmHg 78%
    02:00 +12°C° 0 mm 3 m/s 762 mmHg 75%
    03:00 +12°C° 0 mm 3 m/s 762 mmHg 72%
    04:00 +11°C° 0 mm 3 m/s 761 mmHg 70%
    05:00 +11°C° 0 mm 3 m/s 762 mmHg 68%
    06:00 +10°C° 0 mm 3 m/s 762 mmHg 67%
    07:00 +10°C° 0 mm 4 m/s 763 mmHg 66%
    08:00 +12°C° 0 mm 4 m/s 763 mmHg 59%
    09:00 +13°C° 0 mm 4 m/s 763 mmHg 51%
    10:00 +15°C° 0 mm 4 m/s 762 mmHg 43%
    11:00 +17°C° 0 mm 4 m/s 762 mmHg 38%
    12:00 +18°C° 0 mm 3 m/s 761 mmHg 32%
    13:00 +20°C° 0 mm 3 m/s 761 mmHg 27%
    14:00 +19°C° 0 mm 3 m/s 761 mmHg 29%
    15:00 +19°C° 0 mm 2 m/s 761 mmHg 31%
    16:00 +19°C° 0 mm 2 m/s 761 mmHg 33%
    17:00 +17°C° 0 mm 2 m/s 762 mmHg 38%
    18:00 +16°C° 0 mm 3 m/s 763 mmHg 44%
    19:00 +13°C° 0 mm 3 m/s 763 mmHg 50%
    20:00 +12°C° 0 mm 3 m/s 764 mmHg 53%
    21:00 +11°C° 0 mm 3 m/s 764 mmHg 55%
    22:00 +10°C° 0 mm 3 m/s 764 mmHg 58%
    23:00 +10°C° 0 mm 2 m/s 764 mmHg 58%

    22 Iunie, Sâmbătă

    Timp Temperatura Precipitaţii Vânt Presiune Umiditate
    00:00 +9°C° 0 mm 2 m/s 764 mmHg 58%
    01:00 +9°C° 0 mm 2 m/s 764 mmHg 59%
    02:00 +9°C° 0 mm 2 m/s 763 mmHg 58%
    03:00 +9°C° 0 mm 2 m/s 763 mmHg 57%
    04:00 +9°C° 0 mm 3 m/s 763 mmHg 57%
    05:00 +9°C° 0 mm 3 m/s 764 mmHg 60%
    06:00 +9°C° 0 mm 3 m/s 764 mmHg 63%
    07:00 +9°C° 0 mm 3 m/s 764 mmHg 65%
    08:00 +12°C° 0 mm 3 m/s 764 mmHg 63%
    09:00 +14°C° 0 mm 3 m/s 764 mmHg 60%
    10:00 +17°C° 0 mm 4 m/s 764 mmHg 58%
    11:00 +18°C° 0 mm 4 m/s 764 mmHg 55%
    12:00 +19°C° 0 mm 4 m/s 763 mmHg 51%
    13:00 +20°C° 0 mm 4 m/s 763 mmHg 48%
    14:00 +20°C° 0 mm 4 m/s 763 mmHg 50%
    15:00 +19°C° 0 mm 4 m/s 763 mmHg 52%
    16:00 +19°C° 0 mm 4 m/s 763 mmHg 54%
    17:00 +17°C° 0 mm 4 m/s 764 mmHg 60%
    18:00 +15°C° 0 mm 4 m/s 764 mmHg 66%
    19:00 +14°C° 0 mm 4 m/s 765 mmHg 71%
    20:00 +13°C° 0 mm 4 m/s 765 mmHg 74%
    21:00 +12°C° 0 mm 3 m/s 765 mmHg 77%
    22:00 +12°C° 0 mm 3 m/s 765 mmHg 80%
    23:00 +11°C° 0 mm 3 m/s 765 mmHg 81%
    Arată mai mult